Flag for Greece

Past Weather in Kallithea, Greece — Yesterday and Last 2 Weeks

Now
75 °F

Clear.


Feels Like: 78 °F
Forecast: 92 / 73 °F
Wind: 3 mph from North

Location: Elefsis Airport

Current Time: Jul 12, 2020 at 12:52:19 am

Latest Report: Jul 12, 2020 at 12:20 am


Visibility: 10 mi

Pressure: 29.86 "Hg

Humidity: 41%

Dew Point: 50 °F

Location of KallitheaLocation

Past Weather in Kallithea — Graph

°F

Kallithea Temperature Yesterday

Maximum temperature yesterday: 91 °F (at 2:20 pm)
Minimum temperature yesterday: 77 °F (at 2:20 am)
Average temperature yesterday: 83 °F

High & Low Weather Summary for the Past Weeks

 TemperatureHumidityPressure
High100 °F (Jul 1, 1:50 pm)66% (Jul 5, 6:20 pm)29.98 "Hg (Jul 5, 6:20 pm)
Low70 °F (Jun 30, 5:50 am)17% (Jun 28, 5:50 pm)29.50 "Hg (Jul 7, 2:50 am)
Average84 °F42%29.79 "Hg
* Reported Jun 26 11:20 pm — Jul 11 11:20 pm, Kallithea. Weather by CustomWeather, © 2020

Note: Actual official high and low records may vary slightly from our data, if they occured in-between our weather recording intervals... More about our weather records

Kallithea Weather History for the Previous 24 Hours

Scroll right to see more
 ConditionsComfort  
Time TempWeatherWind HumidityBarometerVisibility
11:20 pm
Sat, Jul 11
79 °FClear.5 mph34%29.86 "Hg10 mi
10:50 pm81 °FClear.5 mph32%29.86 "Hg10 mi
10:20 pm81 °FClear.7 mph30%29.86 "Hg10 mi
9:50 pm82 °FClear.8 mph30%29.86 "Hg10 mi
9:20 pm82 °FClear.6 mph30%29.83 "Hg10 mi
8:50 pm84 °FClear.8 mph27%29.83 "Hg10 mi
8:20 pm86 °FSunny.8 mph24%29.83 "Hg10 mi
7:50 pm88 °FSunny.9 mph21%29.83 "Hg10 mi
7:20 pm90 °FSunny.10 mph21%29.83 "Hg10 mi
6:50 pm90 °FSunny.12 mph18%29.83 "Hg10 mi
6:20 pm90 °FSunny.13 mph22%29.83 "Hg10 mi
5:50 pm91 °FSunny.10 mph24%29.83 "Hg10 mi
5:20 pm90 °FSunny.13 mph22%29.83 "Hg10 mi
4:50 pm91 °FSunny.10 mph21%29.83 "Hg10 mi
3:50 pm91 °FSunny.14 mph24%29.86 "Hg10 mi
3:20 pm90 °FSunny.13 mph24%29.86 "Hg10 mi
2:50 pm91 °FSunny.15 mph26%29.86 "Hg10 mi
2:20 pm91 °FSunny.10 mph26%29.86 "Hg10 mi
1:50 pm90 °FSunny.15 mph27%29.86 "Hg10 mi
1:20 pm88 °FSunny.10 mph31%29.89 "Hg10 mi
12:50 pm88 °FSunny.13 mph31%29.89 "Hg10 mi
12:20 pm88 °FSunny.13 mph31%29.89 "Hg10 mi
11:50 am86 °FSunny.14 mph33%29.89 "Hg10 mi
11:20 am84 °FPassing clouds.13 mph37%29.89 "HgN/A
10:50 am82 °FPassing clouds.12 mph42%29.89 "HgN/A
10:20 am82 °FPassing clouds.13 mph45%29.89 "HgN/A
9:50 am81 °FPassing clouds.15 mph48%29.89 "HgN/A
9:20 am81 °FPassing clouds.14 mph45%29.89 "HgN/A
8:50 am79 °FSunny.13 mph51%29.89 "Hg10 mi
8:20 am79 °FSunny.16 mph48%29.89 "Hg10 mi
7:50 am77 °FSunny.13 mph51%29.89 "Hg10 mi
7:20 am77 °FSunny.10 mph51%29.89 "Hg10 mi
6:50 am77 °FSunny.12 mph51%29.86 "Hg10 mi
6:20 am77 °FSunny.8 mph51%29.89 "Hg10 mi
5:50 am77 °FClear.10 mph51%29.89 "Hg10 mi
5:20 am77 °FClear.12 mph47%29.89 "Hg10 mi
4:50 am77 °FClear.12 mph47%29.89 "Hg10 mi
4:20 am77 °FClear.8 mph47%29.89 "Hg10 mi
3:50 am77 °FClear.8 mph47%29.89 "Hg10 mi
3:20 am77 °FClear.12 mph47%29.89 "Hg10 mi
2:50 am77 °FClear.12 mph47%29.89 "Hg10 mi
2:20 am77 °FClear.12 mph47%29.89 "Hg10 mi
1:50 am79 °FClear.12 mph45%29.89 "Hg10 mi
1:20 am79 °FClear.8 mph45%29.89 "Hg10 mi
12:50 am79 °FClear.6 mph42%29.92 "Hg10 mi
12:20 am79 °FClear.6 mph42%29.92 "Hg10 mi
Weather by CustomWeather, © 2020

See weather overview